Location: College Park
(38.9810°N, 76.9370°W)
Time: 04:32:54
(UTC-05:00)

N. Korean satellite - Pass Details

Date: 15 November 2017
Orbit: 460 x 514 km, 97.2° (Epoch: 24 November)

Event Time Altitude Azimuth Distance (km) Brightness Sun altitude
Rises 18:21:55 0° 176° (S) 2,473 10.2 -17.2°
Reaches altitude 10° 18:23:58 10° 180° (S) 1,606 9.3 -17.6°
Maximum altitude 18:27:21 56° 260° (W) 558 7.1 -18.3°
Drops below altitude 10° 18:30:49 10° 340° (NNW) 1,638 9.4 -18.9°
Sets 18:32:55 0° 344° (NNW) 2,529 10.3 -19.3°
